FW8937 Weather Reports


time (UTC)temp
C
wind
direction
speed
KPH
gust
KPH
rain 1hr
cm
rain 24hr
cm
rain mn
cm
humidity
%
barometer
mb
20260505035907 1 212 6.4 9.7 0.13 0.51 0.51 89 1013.6
20260505035401 1 0 4.8 8.0 0.10 0.48 0.48 89 1013.5
20260505034855 1 0 4.8 8.0 0.15 0.48 0.48 89 1013.5
20260505034349 1 210 3.2 6.4 0.18 0.48 0.48 88 1013.4
20260505034106 1 0 3.2 6.4 0.20 0.48 0.48 88 1013.6
20260505033336 1 209 3.2 4.8 0.18 0.46 0.48 88 1013.6
20260505033056 1 0 3.2 4.8 0.23 0.46 0.46 87 1013.8
20260505032325 1 0 4.8 8.0 0.28 0.46 0.46 87 1013.5
20260505031819 1 0 4.8 8.0 0.30 0.43 0.43 86 1013.6
20260505031313 1 234 1.6 6.4 0.36 0.43 0.43 86 1013.5
20260505030807 1 236 1.6 4.8 0.36 0.41 0.41 85 1013.6
20260505030537 1 236 3.2 4.8 0.38 0.41 0.41 85 1013.6
20260505025754 1 235 3.2 4.8 0.38 0.38 0.38 84 1013.9
20260505025249 1 235 3.2 6.4 0.36 0.36 0.36 84 1013.5
20260505024743 2 235 6.4 9.7 0.33 0.33 0.33 83 1013.5
20260505024237 2 238 8.0 14.5 0.30 0.30 0.30 82 1013.5
20260505023732 2 0 9.7 17.7 0.28 0.28 0.28 82 1013.5
20260505023713 3 302 8.0 17.7 0.28 0.28 0.28 83 1013.6
20260505022719 3 304 4.8 14.5 0.23 0.23 0.23 84 1013.6
20260505022213 3 0 1.6 8.0 0.18 0.18 0.18 84 1013.5
20260505021708 3 0 1.6 9.7 0.10 0.10 0.13 84 1013.4
20260505021201 4 0 4.8 16.1 0.08 0.08 0.08 84 1013.4
20260505020655 4 0 6.4 17.7 0.05 0.05 0.05 84 1013.2
20260505020149 4 59 9.7 17.7 0.03 0.03 0.03 83 1012.7
20260505015643 4 0 9.7 17.7 0.00 0.00 0.00 82 1013.0
20260505015136 5 0 11.3 19.3 0.00 0.00 0.00 81 1013.0
20260505014631 5 0 11.3 20.9 0.00 0.00 0.00 79 1012.8
20260505014125 5 0 12.9 20.9 0.00 0.00 0.00 77 1012.7
20260505013845 5 0 11.3 20.9 0.00 0.00 0.00 76 1012.7
20260505013113 5 0 6.4 20.9 0.00 0.00 0.00 76 1012.5
20260505012607 6 0 4.8 9.7 0.00 0.00 0.00 75 1012.6
20260505012101 6 0 6.4 12.9 0.00 0.00 0.00 74 1012.7
20260505011555 6 0 8.0 14.5 0.00 0.00 0.00 74 1012.8
20260505011049 6 0 6.4 14.5 0.00 0.00 0.00 72 1012.8
20260505010543 6 0 8.0 16.1 0.00 0.00 0.00 70 1012.7
20260505010037 6 156 9.7 19.3 0.00 0.00 0.00 69 1012.8
20260505005531 6 140 8.0 19.3 0.00 0.00 0.00 69 1012.6
20260505005025 6 172 8.0 17.7 0.00 0.00 0.00 70 1012.7
20260505004519 6 0 9.7 19.3 0.00 0.00 0.00 69 1012.8
20260505004234 6 0 9.7 19.3 0.00 0.00 0.00 69 1012.7
20260505003743 6 0 9.7 19.3 0.00 0.00 0.00 68 1012.8
20260505003238 7 0 8.0 16.1 0.00 0.00 0.00 68 1012.8
20260505002514 7 150 11.3 19.3 0.00 0.00 0.00 69 1012.8
20260505002015 7 0 12.9 19.3 0.00 0.00 0.00 69 1012.8
20260505001514 7 127 9.7 19.3 0.00 0.00 0.00 70 1012.8
20260505001238 7 114 6.4 17.7 0.00 0.00 0.00 70 1012.8
20260505000513 7 0 4.8 16.1 0.00 0.00 0.00 69 1013.0
20260505000015 7 138 4.8 11.3 0.00 0.00 0.00 67 1012.8
20260504235512 7 138 3.2 11.3 0.00 0.00 0.00 68 1012.8
20260504235011 7 105 1.6 8.0 0.00 0.00 0.00 67 1013.0
20260504234513 7 90 3.2 8.0 0.00 0.00 0.00 67 1013.0
20260504234010 7 92 4.8 11.3 0.00 0.00 0.00 66 1012.7
20260504233509 7 88 3.2 11.3 0.00 0.00 0.00 67 1012.7
20260504233009 7 83 1.6 8.0 0.00 0.00 0.00 66 1013.0
20260504233001 7 82 1.6 8.0 0.00 0.00 0.00 65 1013.0
20260504232009 7 82 3.2 11.3 0.00 0.00 0.00 65 1012.8
20260504231510 7 0 3.2 11.3 0.00 0.00 0.00 66 1012.5
20260504231010 7 65 3.2 9.7 0.00 0.00 0.00 65 1012.7
20260504230511 7 65 3.2 9.7 0.00 0.00 0.00 68 1012.6
20260504230009 7 69 3.2 9.7 0.00 0.00 0.00 66 1012.3
20260504225729 7 55 4.8 14.5 0.00 0.00 0.00 66 1012.5
20260504225009 7 55 3.2 14.5 0.00 0.00 0.00 65 1012.5
20260504224510 7 32 1.6 8.0 0.00 0.00 0.00 65 1012.6
20260504224234 7 32 1.6 9.7 0.00 0.00 0.00 65 1013.1
20260504223510 7 33 3.2 9.7 0.00 0.00 0.00 67 1013.1
20260504223010 8 355 4.8 14.5 0.00 0.00 0.00 65 1013.2
20260504222511 8 348 6.4 20.9 0.00 0.00 0.00 67 1013.4
20260504222009 8 0 6.4 20.9 0.00 0.00 0.00 65 1013.4
20260504221510 8 323 4.8 16.1 0.00 0.00 0.00 60 1013.5
20260504221229 8 0 3.2 16.1 0.00 0.00 0.00 56 1013.4
20260504220510 8 90 4.8 16.1 0.00 0.00 0.00 54 1013.5
20260504220230 8 0 8.0 17.7 0.00 0.00 0.00 53 1012.7
20260504215507 9 94 8.0 17.7 0.00 0.00 0.00 51 1012.6
20260504215458 9 0 4.8 14.5 0.00 0.00 0.00 49 1012.6
20260504214508 10 0 4.8 14.5 0.00 0.00 0.00 48 1012.6
20260504214443 10 70 6.4 17.7 0.00 0.00 0.00 46 1012.6
20260504213456 10 77 9.7 19.3 0.00 0.00 0.00 44 1012.6
20260504212950 11 79 11.3 24.1 0.00 0.00 0.00 44 1012.3
20260504212444 11 0 11.3 24.1 0.00 0.00 0.00 42 1012.5
20260504211937 12 104 12.9 24.1 0.00 0.00 0.00 39 1012.5
20260504211432 12 81 12.9 27.4 0.00 0.00 0.00 37 1012.3
20260504210926 13 0 9.7 27.4 0.00 0.00 0.00 35 1012.3
20260504210420 14 69 8.0 17.7 0.00 0.00 0.00 32 1012.2
20260504205915 14 77 8.0 17.7 0.00 0.00 0.00 31 1012.2
20260504205630 14 65 8.0 14.5 0.00 0.00 0.00 29 1012.2
20260504204902 15 77 8.0 16.1 0.00 0.00 0.00 28 1012.3
20260504204356 15 31 8.0 16.1 0.00 0.00 0.00 30 1012.5
20260504204330 15 329 11.3 20.9 0.00 0.00 0.00 32 1012.6
20260504203344 14 0 14.5 24.1 0.00 0.00 0.00 33 1012.6
20260504202837 13 325 14.5 25.7 0.00 0.00 0.00 35 1012.6
20260504202332 12 327 11.3 25.7 0.00 0.00 0.00 42 1012.6
20260504201826 12 239 14.5 27.4 0.00 0.00 0.00 39 1012.6
20260504201320 11 329 17.7 27.4 0.00 0.00 0.00 44 1012.6
20260504200814 11 237 17.7 30.6 0.00 0.00 0.00 40 1012.8
20260504200308 10 0 19.3 30.6 0.00 0.00 0.00 45 1012.8
20260504195801 10 213 20.9 37.0 0.00 0.00 0.00 49 1013.0
20260504195256 9 301 24.1 38.6 0.00 0.00 0.00 50 1013.0
20260504194749 9 234 27.4 43.5 0.00 0.00 0.00 48 1013.0
20260504194503 10 0 24.1 43.5 0.00 0.00 0.00 47 1013.1
20260504193738 10 237 19.3 35.4 0.00 0.00 0.00 44 1012.8
20260504193452 10 0 22.5 43.5 0.00 0.00 0.00 43 1012.8
20260504192726 10 233 25.7 43.5 0.00 0.00 0.00 42 1013.0
20260504192220 11 231 25.7 40.2 0.00 0.00 0.00 42 1013.0
20260504191714 11 237 22.5 41.8 0.00 0.00 0.00 41 1013.0
20260504191208 11 0 22.5 41.8 0.00 0.00 0.00 42 1012.8
20260504190930 12 0 22.5 40.2 0.00 0.00 0.00 42 1013.0
20260504190156 12 306 22.5 37.0 0.00 0.00 0.00 40 1013.0
20260504190127 13 0 22.5 38.6 0.00 0.00 0.00 38 1012.8
20260504185144 13 311 25.7 40.2 0.00 0.00 0.00 37 1012.8
20260504184638 13 228 24.1 40.2 0.00 0.00 0.00 35 1013.0
20260504184132 13 318 17.7 37.0 0.00 0.00 0.00 37 1013.1
20260504183627 13 295 16.1 30.6 0.00 0.00 0.00 37 1013.1
20260504183120 13 308 20.9 35.4 0.00 0.00 0.00 36 1013.4
20260504182614 13 311 20.9 35.4 0.00 0.00 0.00 34 1013.2
20260504182108 13 312 17.7 33.8 0.00 0.00 0.00 36 1013.4
20260504181602 13 0 17.7 29.0 0.00 0.00 0.00 37 1013.2
20260504181056 13 295 16.1 30.6 0.00 0.00 0.00 36 1013.2
20260504180550 13 303 16.1 33.8 0.00 0.00 0.00 36 1013.4
20260504180044 13 311 16.1 33.8 0.00 0.00 0.00 35 1013.6
20260504175538 12 0 12.9 27.4 0.00 0.00 0.00 37 1013.6
20260504175032 12 342 12.9 24.1 0.00 0.00 0.00 40 1013.6
20260504174526 11 233 12.9 24.1 0.00 0.00 0.00 39 1013.8
20260504174020 11 295 12.9 24.1 0.00 0.00 0.00 41 1013.9
20260504173736 11 304 9.7 24.1 0.00 0.00 0.00 40 1014.0
20260504173014 11 232 11.3 25.7 0.00 0.00 0.00 41 1014.2
20260504172514 11 304 17.7 32.2 0.00 0.00 0.00 42 1014.3
20260504172014 11 238 17.7 32.2 0.00 0.00 0.00 40 1014.4
20260504171515 10 338 17.7 33.8 0.00 0.00 0.00 42 1014.2
20260504171015 10 0 16.1 33.8 0.00 0.00 0.00 42 1014.3
20260504171003 10 320 16.1 29.0 0.00 0.00 0.00 42 1014.2
20260504151004 7 0 25.7 40.2 0.00 0.00 0.00 45 1014.0
20260504150502 7 0 27.4 48.3 0.00 0.00 0.00 46 1014.0
20260504141149 7 319 27.4 46.7 0.00 0.00 0.00 45 1013.9
20260504140421 7 297 29.0 46.7 0.00 0.00 0.00 45 1014.0
20260504140138 7 232 27.4 41.8 0.00 0.00 0.00 45 1014.0
20260504130814 6 236 11.3 25.7 0.00 0.00 0.00 40 1014.0
20260504130309 6 205 12.9 25.7 0.00 0.00 0.00 39 1014.0
20260504120157 5 300 12.9 19.3 0.00 0.00 0.00 35 1013.5
20260504110400 6 304 12.9 16.1 0.00 0.00 0.00 34 1013.8
20260504100138 6 0 12.9 19.3 0.00 0.00 0.00 35 1014.2
20260504081604 7 0 14.5 22.5 0.00 0.00 0.00 35 1014.8
20260504081058 7 235 16.1 22.5 0.00 0.00 0.00 35 1014.8
20260504080552 7 0 16.1 22.5 0.00 0.00 0.00 36 1014.9
20260504070220 6 227 16.1 25.7 0.00 0.00 0.00 39 1015.5
20260504050616 6 0 11.3 16.1 0.00 0.00 0.00 42 1016.4
20260504045843 6 0 11.3 17.7 0.00 0.00 0.00 41 1016.4
20260504045606 7 238 11.3 17.7 0.00 0.00 0.00 41 1016.5
20260504044832 7 238 11.3 17.7 0.00 0.00 0.00 41 1016.5
20260504044327 7 0 11.3 17.7 0.00 0.00 0.00 40 1016.5
20260504043820 7 0 11.3 17.7 0.00 0.00 0.00 39 1016.5
20260504043315 7 0 11.3 17.7 0.00 0.00 0.00 39 1016.5
20260504042808 7 0 12.9 17.7 0.00 0.00 0.00 39 1016.5
20260504042304 7 0 12.9 20.9 0.00 0.00 0.00 38 1016.6
20260504041755 8 0 12.9 20.9 0.00 0.00 0.00 38 1016.5
20260504041250 8 235 12.9 19.3 0.00 0.00 0.00 38 1016.6
20260504040744 8 0 12.9 22.5 0.00 0.00 0.00 38 1016.8
20260504040502 8 0 12.9 22.5 0.00 0.00 0.00 37 1016.6